Temperature
11 12 12 12 11 11 11 11 10 10 10 9 9 9 8 8 8 8 7 7 7 7 7 6 6 6 6 6 6 6 6 5 5 4 4 4 4 4 4 3 3 3 3
11 11 11 11 11 10 10 10 9 9 9 8 8 8 7 7 7 6 6 6 6 6 6 5 5 5 5 5 5 5 5 5 4 4 4 3 3 3 3 3 3 2 2
10 10 10 10 10 9 9 9 9 8 8 7 7 7 6 6 6 6 5 5 5 5 5 4 4 4 4 4 4 4 4 4 4 3 3 3 3 3 2 2 2 2 2
10 10 10 9 9 9 9 8 8 7 7 6 6 6 5 5 5 5 4 4 4 4 3 3 3 3 4 4 4 4 4 3 3 3 3 2 2 2 2 2 1 1 1
9 9 9 9 8 8 8 7 7 6 6 5 5 5 4 4 4 4 3 3 3 3 3 3 3 3 3 3 3 3 3 3 3 2 2 2 2 1 1 1 1 1 0
9 9 8 8 8 7 7 6 6 5 5 5 4 4 4 3 3 3 3 3 2 2 2 2 2 2 2 2 2 2 2 2 2 2 2 1 1 1 0 0 0 -0 -0
9 8 8 8 7 7 6 6 5 5 4 4 3 3 3 2 2 2 2 2 2 2 2 2 2 2 2 2 2 1 1 1 1 1 1 1 1 0 -0 -0 -1 -1 -1
8 8 8 7 7 6 5 5 4 4 3 3 2 2 2 1 1 1 1 1 1 1 1 1 1 1 1 1 1 1 1 1 1 0 0 0 -0 -1 -1 -1 -1 -1 -2
8 7 7 7 6 6 5 4 4 3 3 2 2 1 1 1 1 1 1 1 1 0 0 0 0 1 0 0 0 0 0 0 -0 -0 -1 -1 -1 -1 -1 -1 -2 -2 -2
7 7 7 6 6 5 4 4 3 3 2 1 1 1 1 0 0 0 -0 0 0 0 0 -0 -0 -0 -0 -0 -0 -0 -0 -0 -1 -1 -1 -1 -1 -2 -2 -2 -2 -2 -3
7 6 6 5 5 4 4 3 3 2 1 1 0 0 0 0 -0 -0 -0 -0 -0 -0 -0 -0 -1 -1 -1 -1 -1 -1 -1 -1 -1 -1 -1 -2 -2 -2 -2 -3 -3 -3 -3
6 6 5 5 4 4 3 3 2 1 1 0 -0 -0 -0 -0 -0 -0 -1 -1 -1 -1 -1 -1 -1 -1 -1 -1 -1 -1 -1 -2 -2 -2 -2 -2 -2 -2 -3 -3 -3 -3 -3
5 5 4 4 4 3 3 2 2 1 0 0 -0 -0 -0 -0 -0 -1 -1 -1 -1 -1 -1 -1 -1 -1 -1 -1 -1 -2 -2 -2 -2 -2 -2 -2 -3 -3 -3 -3 -3 -3 -4
5 4 4 3 3 3 2 2 1 1 0 0 -0 -0 -0 -0 -0 -1 -1 -1 -1 -1 -1 -1 -1 -1 -1 -1 -1 -2 -2 -2 -2 -2 -2 -3 -3 -3 -3 -3 -3 -4 -4
4 4 3 3 2 2 2 1 1 0 0 -0 -0 -0 -0 -0 -0 -1 -1 -1 -1 -1 -2 -2 -1 -1 -1 -1 -1 -2 -2 -2 -2 -2 -3 -3 -3 -3 -3 -4 -4 -4 -4
3 3 2 2 2 1 1 1 0 -0 -0 -1 -1 -1 -1 -1 -1 -1 -1 -1 -2 -2 -2 -1 -1 -1 -1 -1 -1 -2 -2 -2 -2 -3 -3 -3 -3 -4 -4 -4 -4 -4 -4
3 2 2 2 1 1 1 0 -0 -0 -1 -1 -1 -1 -1 -1 -1 -1 -1 -2 -2 -2 -2 -1 -1 -1 -1 -1 -2 -2 -2 -2 -3 -3 -3 -3 -4 -4 -4 -4 -4 -5 -5
2 2 2 1 1 1 0 0 -0 -0 -1 -0 -1 -1 -1 -1 -1 -1 -2 -2 -2 -2 -1 -1 -1 -1 -1 -2 -2 -2 -2 -3 -3 -3 -3 -3 -4 -4 -4 -4 -5 -5 -5
2 2 1 1 0 0 -0 -0 -0 -1 -1 -1 -1 -1 -1 -1 -1 -2 -2 -2 -1 -1 -1 -1 -1 -1 -2 -2 -2 -2 -3 -3 -3 -3 -3 -4 -4 -4 -5 -5 -5 -5 -6
1 1 1 0 0 -0 -0 -1 -1 -1 -1 -1 -1 -1 -1 -1 -1 -1 -1 -1 -1 -1 -1 -1 -1 -2 -2 -2 -2 -3 -3 -3 -3 -3 -4 -4 -4 -5 -5 -5 -5 -6 -6
1 0 0 -0 -0 -1 -1 -1 -1 -1 -1 -1 -1 -1 -1 -2 -1 -1 -1 -1 -1 -1 -1 -2 -2 -2 -2 -2 -3 -3 -3 -3 -3 -4 -4 -4 -5 -5 -5 -6 -6 -6 -7
-0 -0 -0 -1 -1 -1 -1 -1 -1 -1 -1 -1 -1 -2 -2 -2 -2 -2 -2 -2 -2 -2 -2 -2 -2 -2 -2 -2 -3 -3 -3 -4 -4 -4 -4 -5 -5 -5 -6 -6 -6 -7 -7
-1 -1 -1 -1 -1 -1 -2 -2 -2 -2 -2 -2 -2 -2 -2 -2 -2 -2 -2 -2 -2 -2 -2 -2 -2 -2 -3 -3 -3 -3 -4 -4 -4 -5 -5 -5 -5 -6 -6 -6 -7 -7 -7
-1 -1 -1 -2 -2 -2 -2 -2 -2 -2 -2 -2 -2 -3 -2 -3 -2 -2 -2 -2 -2 -3 -3 -3 -3 -3 -3 -3 -3 -4 -4 -4 -4 -5 -5 -6 -6 -6 -7 -7 -7 -7 -8
-2 -2 -2 -2 -2 -2 -3 -3 -3 -3 -3 -3 -3 -3 -3 -3 -3 -3 -3 -3 -3 -3 -3 -3 -3 -4 -4 -4 -4 -4 -4 -5 -5 -5 -6 -6 -6 -7 -7 -7 -7 -8 -8
-2 -2 -3 -3 -3 -3 -3 -3 -3 -3 -3 -3 -4 -4 -4 -4 -4 -4 -4 -4 -4 -4 -4 -4 -4 -4 -4 -4 -4 -5 -5 -5 -5 -6 -6 -6 -7 -7 -7 -8 -8 -8 -9
Wind_Speed
8 7 7 6 6 6 5 5 5 4 3 3 3 2 2 2 2 2 2 2 2 2 2 3 3 3 2 2 2 1 1 1 2 2 2 2 3 3 5 7 7 8 8
8 8 8 7 6 6 5 5 5 4 4 3 3 3 3 3 3 2 2 2 3 3 3 3 3 3 4 3 2 3 2 2 2 3 2 2 2 2 2 3 5 6 6
8 8 8 7 7 6 6 5 5 4 4 3 3 3 3 3 3 3 3 4 4 4 4 4 4 4 4 3 3 3 2 2 3 3 2 1 1 1 2 2 3 4 4
8 8 8 8 7 7 6 6 5 4 4 4 4 4 4 3 3 3 4 4 5 5 5 5 5 4 3 3 3 3 2 3 4 4 3 2 1 1 2 2 2 2 2
8 8 8 8 7 7 6 6 5 4 4 4 4 4 3 3 3 3 3 5 5 5 5 5 5 6 6 5 4 3 3 3 3 4 3 2 2 2 1 2 2 2 2
9 8 8 8 8 7 7 6 5 5 4 4 4 4 3 3 5 5 5 4 4 4 4 4 4 5 6 8 8 8 6 4 3 3 2 2 2 2 2 2 2 2 2
9 9 9 9 8 7 7 6 6 5 4 4 4 4 4 5 6 5 6 4 4 4 4 3 3 4 4 3 6 7 8 8 6 3 3 2 2 2 2 2 2 1 1
9 9 9 9 9 8 7 6 6 5 4 4 4 4 4 5 7 6 6 4 3 3 3 3 4 3 3 3 4 4 4 4 5 4 4 3 4 3 3 1 1 1 2
10 10 10 10 10 9 8 7 5 5 4 4 4 4 4 5 7 7 6 3 3 3 2 2 3 4 4 4 3 3 3 2 5 6 6 5 4 4 4 3 2 2 1
10 9 10 10 10 9 8 7 5 5 5 5 4 4 5 5 8 8 7 3 3 3 3 2 2 4 5 4 2 2 2 2 2 2 2 2 2 2 3 3 2 1 0
8 9 9 9 9 8 8 6 7 6 6 5 5 4 5 6 9 10 8 3 3 4 4 3 4 6 5 4 2 2 3 3 2 2 1 1 1 2 3 3 2 2 1
8 9 9 8 8 8 8 7 7 7 7 6 5 5 4 5 8 9 10 8 5 3 3 3 4 7 6 5 3 3 4 2 1 1 1 1 1 1 1 1 0 1 3
8 8 8 8 7 8 8 8 7 7 6 6 6 5 5 4 6 12 12 11 10 5 4 5 6 7 6 4 6 6 4 2 2 2 2 2 2 2 2 1 2 3 5
8 8 8 8 8 8 7 7 7 8 7 7 7 6 5 5 5 5 5 6 9 6 4 6 8 7 6 6 6 5 4 4 3 3 3 2 2 2 2 2 2 2 3
8 8 8 8 8 8 7 8 8 8 9 8 7 7 7 7 9 13 9 6 6 6 5 3 4 4 4 4 4 4 4 4 4 3 3 3 3 3 3 3 2 2 3
6 7 6 6 6 6 6 5 9 9 12 13 11 9 8 10 11 14 15 14 14 13 8 5 6 6 6 6 6 5 5 6 5 5 4 4 4 4 3 3 3 4 5
6 6 6 6 6 6 6 6 5 7 10 12 13 13 12 12 12 13 14 14 15 14 8 6 6 7 7 6 6 6 6 6 5 5 5 5 5 4 4 4 5 5 6
5 6 6 6 6 6 7 6 6 6 5 5 10 15 16 15 15 14 14 12 9 10 7 7 8 7 7 7 7 6 6 6 5 6 6 6 6 5 5 6 6 7 7
5 4 5 5 5 5 6 6 5 6 6 5 4 7 14 15 16 16 14 9 9 9 9 8 8 8 7 7 7 7 7 7 6 6 7 7 7 7 7 7 7 10 9
4 6 6 4 5 5 5 6 6 6 6 6 7 6 6 7 7 9 10 8 9 9 9 9 9 9 8 8 8 7 7 7 8 8 8 8 8 8 8 9 8 8 8
3 4 6 5 5 5 5 6 6 6 7 7 7 8 11 8 9 9 9 9 10 10 9 9 9 9 9 8 8 9 10 9 8 8 8 8 8 8 8 8 8 8 8
2 3 4 4 4 5 5 5 6 6 7 8 6 7 13 9 8 8 9 9 9 9 9 8 8 8 8 9 9 9 10 10 9 9 9 8 8 9 8 8 8 8 8
2 3 3 4 4 6 6 5 6 6 7 7 6 6 7 7 8 8 8 8 8 8 7 8 8 8 8 11 12 10 10 10 10 9 9 9 9 9 9 9 10 9 9
3 3 4 4 4 4 5 5 6 6 7 7 7 7 7 7 8 9 8 7 7 8 7 8 9 10 11 11 13 15 16 15 14 13 12 10 10 9 9 9 9 10 10
3 3 3 4 4 4 5 5 6 6 6 6 7 7 7 7 7 7 7 7 8 8 9 9 9 10 13 14 14 15 18 19 18 15 13 10 10 10 10 9 9 9 10
3 3 3 3 3 4 4 5 5 5 6 6 6 6 6 6 7 7 6 6 7 7 7 8 10 12 13 14 16 18 19 20 20 20 15 10 10 10 10 9 11 10 10
Wind_Direction
134 127 122 115 111 108 106 103 99 95 92 88 82 72 68 58 52 74 88 84 96 87 74 87 81 71 71 44 38 50 45 80 141 112 92 88 69 51 38 42 48 52 45
140 136 129 123 121 120 117 111 108 106 95 88 83 78 69 58 49 66 91 86 96 97 89 93 87 81 69 48 51 57 56 55 111 131 111 90 78 66 48 43 43 47 41
142 138 136 137 137 132 124 115 109 108 106 99 92 90 79 63 56 64 83 84 85 85 79 82 79 84 74 59 60 61 54 63 81 117 115 90 78 61 49 38 41 34 35
148 148 148 147 141 132 124 119 117 115 113 105 97 94 92 86 80 80 90 92 85 77 69 69 67 76 81 77 72 61 65 78 91 107 107 98 83 56 65 41 21 7 12
152 153 151 141 133 129 128 130 127 124 121 119 118 117 115 113 109 105 105 105 102 94 81 77 75 79 77 74 76 58 63 84 92 102 105 92 78 65 54 27 23 352 13
158 157 147 141 139 140 142 143 140 138 136 134 135 134 130 119 120 119 114 111 117 120 115 107 105 86 87 82 78 71 70 85 100 104 109 117 112 90 63 47 40 34 336
160 156 152 151 150 151 152 149 150 151 146 146 143 138 130 131 141 139 136 128 131 136 139 136 121 108 96 96 88 80 69 67 71 104 114 118 110 90 87 54 39 21 261
162 161 159 158 156 154 155 160 157 151 152 151 149 148 142 152 156 152 147 132 132 137 137 140 135 126 110 101 99 89 77 64 64 68 94 91 94 90 94 121 181 328 294
171 170 167 164 161 161 166 166 157 152 153 157 159 159 159 165 169 166 158 148 150 151 139 123 132 139 141 119 107 109 97 83 90 93 97 100 97 90 77 69 49 43 357
178 171 165 164 164 166 168 162 154 154 160 162 169 177 175 175 182 182 182 173 172 168 165 160 159 162 165 160 146 150 150 149 117 98 91 110 120 111 87 101 117 111 330
159 155 157 160 162 162 160 158 158 162 166 172 179 192 191 190 190 193 197 187 183 177 180 185 192 187 186 195 192 172 182 159 160 179 191 176 139 124 104 91 101 143 194
147 152 157 159 161 161 160 164 168 171 176 182 186 197 204 196 197 203 206 208 198 178 187 188 190 190 197 212 217 215 207 182 165 195 200 194 171 153 124 103 40 255 239
151 159 161 162 162 163 167 173 177 181 185 190 192 200 204 197 205 214 214 213 214 202 195 196 189 195 206 223 231 228 219 199 203 215 219 215 188 166 155 195 266 272 272
163 167 168 169 170 173 177 180 186 190 193 195 199 203 200 198 201 206 206 214 216 216 210 214 214 216 216 224 234 234 207 201 204 213 217 203 173 169 197 212 233 266 282
173 174 175 178 177 183 188 194 196 201 198 197 202 198 196 207 212 206 198 199 194 199 185 186 194 204 212 218 221 218 208 212 223 209 205 200 201 205 217 215 220 233 251
179 180 180 180 182 185 189 201 211 209 214 214 208 203 210 215 216 213 212 212 211 208 201 200 209 213 216 217 217 216 212 212 209 205 206 206 209 216 227 224 225 235 253
186 183 181 183 186 190 191 197 207 219 225 226 224 223 221 220 220 217 216 217 217 213 213 212 217 219 220 217 214 213 215 212 201 201 207 210 212 220 229 235 235 241 251
191 189 188 192 194 196 198 201 201 204 214 229 230 231 230 229 226 223 220 216 221 219 215 218 222 222 219 217 216 216 216 210 205 207 209 212 214 221 229 235 236 240 249
196 195 193 194 195 198 199 202 206 211 219 222 216 226 229 231 230 228 221 216 215 219 220 222 222 221 219 217 216 215 213 213 211 209 213 217 217 221 229 233 236 245 247
207 206 195 195 198 200 204 208 213 218 222 223 225 221 208 210 220 221 218 217 221 225 223 223 223 220 219 217 216 214 216 218 216 217 218 219 219 221 228 231 234 238 242
209 212 208 204 207 209 211 215 218 220 225 229 231 224 214 212 220 221 219 220 224 227 227 225 223 220 219 216 215 216 218 222 220 220 220 220 219 223 227 230 233 235 240
220 216 213 216 217 218 222 220 220 225 229 234 236 234 235 228 224 226 226 226 225 225 223 221 224 223 219 216 216 217 221 224 223 220 220 219 220 224 226 228 232 233 237
239 230 228 228 226 234 236 229 228 231 235 235 234 230 230 230 232 234 235 233 229 227 222 221 226 228 222 219 217 216 222 225 220 214 215 218 220 223 224 227 228 231 235
253 245 242 239 233 231 236 237 236 237 239 241 240 239 237 236 238 239 238 236 233 230 225 223 227 229 224 222 223 222 225 227 222 217 213 216 218 221 222 227 230 232 234
256 254 252 249 247 245 246 246 245 244 243 244 245 245 244 243 244 244 242 239 238 236 231 227 229 230 230 228 227 227 229 231 228 222 216 217 219 218 220 224 228 232 233
272 266 264 260 256 256 255 256 256 254 252 252 250 248 248 247 248 248 245 243 243 243 240 233 232 231 232 233 233 234 236 238 235 230 221 217 218 222 221 227 227 230 234
Height
1496 1499 1501 1503 1505 1506 1507 1508 1509 1509 1509 1509 1509 1509 1509 1509 1508 1508 1507 1507 1507 1507 1507 1507 1507 1507 1508 1508 1508 1509 1509 1510 1510 1511 1511 1511 1511 1511 1511 1510 1510 1509 1509
1493 1496 1498 1500 1501 1502 1503 1504 1505 1505 1505 1505 1505 1505 1504 1504 1504 1503 1503 1503 1503 1503 1503 1503 1503 1503 1504 1504 1504 1505 1505 1506 1507 1507 1508 1508 1508 1508 1508 1507 1507 1507 1507
1490 1492 1494 1496 1497 1499 1499 1500 1500 1501 1501 1501 1501 1500 1500 1500 1500 1500 1499 1499 1499 1499 1499 1500 1500 1500 1501 1501 1501 1502 1502 1502 1503 1504 1504 1505 1505 1505 1505 1505 1505 1504 1504
1486 1488 1490 1492 1494 1495 1496 1496 1496 1497 1497 1496 1497 1497 1496 1496 1496 1496 1496 1496 1496 1496 1496 1497 1497 1498 1498 1498 1498 1499 1499 1499 1500 1501 1501 1502 1503 1503 1503 1503 1502 1502 1502
1483 1485 1487 1489 1490 1491 1492 1492 1492 1493 1493 1493 1493 1493 1493 1493 1493 1493 1493 1493 1493 1494 1494 1494 1495 1495 1495 1496 1496 1496 1497 1497 1497 1498 1499 1499 1500 1500 1500 1500 1500 1500 1500
1479 1482 1483 1485 1486 1487 1488 1488 1489 1489 1489 1489 1489 1489 1489 1490 1490 1490 1490 1490 1491 1491 1492 1492 1492 1493 1493 1493 1494 1494 1495 1495 1495 1496 1496 1497 1497 1498 1498 1498 1498 1498 1497
1476 1478 1479 1481 1482 1483 1484 1484 1485 1485 1485 1486 1486 1486 1486 1487 1487 1487 1487 1488 1488 1489 1489 1490 1490 1491 1491 1492 1492 1492 1493 1493 1494 1495 1495 1495 1496 1496 1496 1496 1496 1496 1495
1472 1473 1475 1477 1478 1479 1480 1481 1481 1481 1482 1482 1482 1483 1483 1484 1484 1484 1485 1485 1486 1487 1487 1488 1488 1489 1489 1490 1490 1491 1491 1492 1492 1492 1493 1493 1494 1494 1494 1494 1494 1494 1494
1467 1469 1471 1473 1474 1475 1476 1477 1477 1478 1478 1479 1479 1480 1480 1481 1481 1482 1482 1483 1483 1484 1485 1485 1486 1487 1487 1488 1488 1489 1489 1490 1490 1491 1491 1492 1492 1492 1492 1492 1492 1492 1491
1463 1465 1467 1469 1470 1471 1472 1473 1473 1474 1475 1476 1476 1477 1477 1478 1479 1479 1480 1481 1481 1482 1483 1483 1484 1485 1485 1486 1486 1487 1487 1488 1488 1489 1489 1490 1490 1490 1490 1490 1490 1489 1489
1460 1461 1463 1465 1466 1467 1468 1469 1470 1471 1471 1472 1473 1474 1475 1475 1476 1477 1478 1478 1479 1480 1480 1481 1482 1482 1483 1484 1484 1485 1485 1486 1486 1487 1487 1487 1487 1488 1488 1487 1487 1487 1487
1456 1457 1459 1461 1462 1463 1464 1465 1466 1467 1468 1468 1470 1471 1472 1472 1473 1474 1475 1476 1476 1477 1478 1479 1479 1480 1481 1481 1482 1482 1483 1483 1484 1484 1485 1485 1485 1485 1485 1485 1484 1484 1484
1452 1453 1455 1457 1458 1459 1460 1461 1462 1463 1464 1465 1466 1467 1468 1469 1470 1471 1472 1473 1474 1474 1475 1476 1477 1477 1478 1479 1479 1480 1480 1481 1481 1481 1482 1482 1482 1482 1482 1482 1481 1481 1480
1448 1450 1451 1452 1454 1455 1456 1457 1458 1458 1460 1461 1462 1463 1465 1466 1467 1468 1469 1470 1471 1471 1472 1473 1474 1474 1475 1475 1476 1476 1477 1478 1478 1478 1478 1479 1479 1478 1478 1478 1477 1477 1477
1445 1446 1447 1448 1449 1450 1452 1453 1453 1455 1456 1457 1458 1460 1461 1462 1463 1464 1465 1466 1467 1468 1468 1469 1470 1470 1471 1472 1472 1473 1473 1474 1474 1475 1475 1475 1475 1475 1474 1474 1473 1473 1472
1441 1442 1443 1444 1445 1446 1447 1448 1449 1451 1452 1453 1454 1455 1456 1458 1459 1460 1461 1462 1463 1464 1464 1464 1465 1466 1467 1467 1468 1469 1469 1470 1470 1470 1470 1470 1470 1470 1470 1470 1469 1468 1468
1437 1438 1439 1440 1441 1442 1443 1444 1445 1446 1448 1448 1450 1451 1452 1453 1454 1455 1456 1457 1458 1459 1459 1459 1460 1461 1462 1463 1463 1464 1465 1465 1465 1466 1466 1466 1466 1465 1465 1465 1464 1463 1463
1433 1434 1435 1436 1437 1438 1439 1440 1441 1442 1443 1443 1445 1446 1447 1448 1449 1451 1452 1453 1453 1453 1453 1454 1455 1456 1457 1458 1458 1459 1459 1460 1460 1460 1460 1460 1460 1460 1460 1459 1459 1458 1457
1429 1430 1431 1432 1433 1433 1434 1435 1436 1437 1438 1439 1440 1441 1442 1443 1444 1445 1446 1446 1446 1447 1448 1449 1450 1451 1451 1452 1453 1453 1454 1454 1454 1454 1454 1454 1454 1454 1454 1453 1453 1452 1452
1426 1426 1427 1428 1428 1429 1430 1430 1431 1431 1432 1433 1434 1436 1437 1438 1438 1439 1439 1440 1440 1441 1442 1443 1443 1444 1445 1446 1446 1447 1447 1447 1448 1448 1448 1448 1448 1448 1447 1447 1447 1446 1445
1422 1422 1423 1423 1424 1424 1425 1425 1426 1427 1427 1428 1429 1430 1431 1431 1432 1432 1433 1433 1434 1434 1435 1436 1437 1437 1438 1438 1439 1439 1440 1440 1440 1440 1441 1441 1441 1440 1440 1440 1440 1439 1439
1418 1418 1418 1419 1419 1420 1420 1421 1421 1421 1422 1422 1423 1424 1424 1425 1425 1425 1426 1426 1427 1428 1428 1429 1429 1430 1430 1431 1431 1431 1432 1432 1432 1433 1433 1433 1433 1433 1433 1433 1432 1432 1432
1414 1414 1414 1415 1415 1415 1415 1416 1416 1416 1416 1416 1417 1417 1417 1417 1418 1418 1418 1419 1419 1420 1420 1421 1421 1422 1422 1423 1423 1423 1424 1424 1425 1425 1425 1425 1425 1425 1425 1425 1425 1425 1424
1411 1410 1410 1410 1410 1410 1410 1410 1410 1410 1410 1410 1410 1410 1410 1410 1410 1410 1411 1411 1411 1412 1412 1413 1413 1413 1414 1414 1415 1415 1415 1416 1416 1416 1417 1417 1417 1417 1417 1417 1417 1417 1417
1407 1407 1407 1406 1406 1406 1406 1405 1405 1405 1405 1404 1404 1404 1403 1403 1403 1403 1403 1403 1403 1403 1404 1404 1405 1405 1405 1406 1406 1406 1407 1407 1407 1408 1408 1408 1408 1408 1409 1409 1409 1409 1409
1404 1403 1403 1402 1402 1401 1401 1400 1400 1399 1399 1398 1398 1397 1397 1396 1396 1396 1395 1395 1395 1395 1395 1396 1396 1396 1397 1397 1397 1398 1398 1398 1399 1399 1399 1399 1399 1400 1400 1400 1400 1401 1401